Temperature
21 21 21 20 20 20 20 20 20 20 19 19 19 19 19 19 19 19 19 19 19 19 19 19 19 19 19 19 19 19 19 19 19 19 19 19 19 18 18 18 18 18 18
21 21 21 20 20 20 20 20 20 19 19 19 19 19 19 19 19 19 19 19 19 19 19 19 19 19 19 19 19 19 19 19 19 19 19 19 19 19 18 18 18 18 18
21 21 21 20 20 20 20 20 20 19 19 19 19 19 19 19 19 19 19 19 19 19 19 19 19 19 19 19 19 19 19 19 19 19 19 19 19 18 18 18 18 18 18
21 21 21 20 20 20 20 19 19 19 19 19 19 19 19 19 19 19 19 19 19 19 19 19 19 19 19 19 19 19 19 19 19 18 18 18 18 18 18 18 18 18 18
21 21 21 21 20 20 20 20 19 19 19 19 19 19 19 19 19 19 19 19 19 19 19 19 19 19 19 19 19 19 19 19 19 18 18 18 18 18 18 18 18 18 18
21 21 21 21 20 20 20 20 19 19 19 19 19 19 19 19 19 19 19 19 19 19 19 19 19 19 19 19 19 19 19 19 19 18 18 18 18 18 18 18 18 18 18
21 21 21 21 20 20 20 20 20 19 19 19 19 19 19 19 19 19 19 19 19 19 19 19 19 19 19 19 19 19 19 19 19 19 18 18 18 18 18 18 18 18 18
22 21 21 21 21 20 20 20 20 20 19 19 19 19 19 19 19 19 19 19 19 19 19 19 19 19 19 19 19 19 19 19 19 19 18 18 19 19 19 18 18 18 18
22 22 21 21 21 21 20 20 20 20 20 19 19 19 19 19 19 19 19 19 19 19 19 19 19 19 19 19 19 19 19 19 19 19 18 18 19 19 19 18 18 18 18
22 22 21 21 21 21 20 20 20 20 20 20 19 19 19 19 19 19 19 19 19 19 19 19 19 19 19 19 19 19 19 19 19 19 19 19 19 18 18 18 18 18 18
22 22 21 21 21 20 20 20 20 20 20 19 19 19 19 19 19 19 19 19 19 19 19 19 19 19 19 19 19 19 19 19 19 19 19 19 19 19 19 18 18 18 18
22 22 22 21 21 21 20 20 20 20 20 19 19 19 19 19 19 19 19 19 19 19 19 19 19 19 19 19 19 19 19 19 19 18 19 19 19 19 19 18 18 18 18
22 22 22 22 21 21 21 20 20 20 20 19 19 19 19 19 19 19 19 19 19 19 19 19 19 18 18 18 18 19 19 19 18 18 18 19 19 19 19 18 18 18 18
22 22 22 22 22 21 21 21 20 20 20 20 20 19 19 19 19 19 19 19 19 19 19 18 18 18 19 19 19 19 18 18 18 18 18 18 18 19 19 19 18 18 18
22 22 22 22 21 21 21 21 21 20 20 20 20 20 19 19 19 19 19 19 19 19 19 19 18 19 19 19 19 19 18 18 18 18 18 18 18 18 18 18 18 18 18
22 22 22 21 21 21 21 21 21 21 20 20 20 20 19 19 19 19 19 19 19 19 19 19 19 19 19 19 19 19 19 19 18 18 18 18 18 18 18 18 18 18 18
22 22 22 21 21 21 21 21 21 20 20 20 20 20 19 19 19 19 19 19 19 19 19 19 19 19 19 19 19 19 19 19 18 18 18 18 18 18 18 18 18 18 18
22 22 22 21 21 21 21 20 20 20 20 20 20 20 19 19 19 19 19 19 19 19 19 19 19 19 19 19 19 19 19 19 18 18 18 18 18 18 18 18 18 18 18
22 22 22 21 21 21 21 21 20 20 20 20 20 20 20 19 19 19 19 19 19 19 19 18 18 19 19 19 19 19 19 19 19 18 18 18 18 18 17 18 18 17 18
22 22 22 21 21 21 21 20 20 20 20 20 20 20 20 19 19 19 19 19 19 19 19 19 18 18 19 19 19 19 19 19 19 18 18 18 18 18 17 17 17 17 17
22 22 22 21 21 21 21 20 20 20 20 20 20 20 20 19 19 19 19 19 19 18 18 18 18 18 18 19 19 19 19 19 19 18 18 18 18 18 17 17 17 17 17
23 22 22 21 21 21 21 21 20 20 20 20 20 20 20 19 19 19 19 19 19 18 18 18 18 18 18 18 18 18 18 19 19 18 18 18 18 18 18 17 17 17 17
23 22 22 21 21 21 21 20 20 20 20 20 19 19 19 19 19 19 19 19 18 18 18 18 18 18 18 18 18 18 18 18 18 18 18 18 18 18 18 17 17 17 17
23 22 22 22 21 21 21 20 20 20 20 20 20 19 19 19 19 19 19 19 18 18 18 18 18 18 18 18 18 18 18 18 18 18 18 18 18 18 17 17 17 17 17
23 23 22 22 21 21 21 20 20 20 20 20 19 19 19 19 19 18 18 18 18 18 18 18 18 18 18 18 18 18 18 18 18 18 18 18 18 17 17 17 17 17 17
24 23 22 21 21 21 20 20 20 20 20 20 19 19 19 19 19 18 18 18 18 18 18 18 18 18 18 18 18 18 18 18 18 18 18 18 17 17 17 17 17 17 16
Wind_Speed
10 12 12 11 10 10 10 9 9 10 10 10 10 10 11 11 11 11 11 11 12 12 12 12 12 11 11 10 9 9 10 10 10 10 10 10 10 9 10 9 9 9 12
13 13 13 11 11 10 10 10 10 10 10 10 10 11 11 11 11 11 11 11 11 11 11 11 11 11 10 9 8 9 9 9 9 9 9 8 8 9 9 8 7 9 12
14 14 13 12 11 11 10 11 11 11 11 11 11 11 11 11 11 10 10 10 10 11 10 11 10 10 9 8 8 8 8 7 8 8 8 7 9 9 9 9 10 11 10
15 14 14 13 12 11 11 11 11 11 11 11 10 10 10 10 10 10 10 9 10 10 10 10 10 9 8 8 7 7 7 6 7 7 6 6 9 10 9 9 9 9 9
15 15 15 13 12 12 11 11 11 11 11 10 10 10 9 9 9 9 9 9 9 9 9 9 8 8 7 7 6 6 6 5 5 6 4 6 9 11 10 9 8 8 8
15 15 15 13 12 11 11 11 10 10 10 10 9 9 9 9 8 8 8 8 8 8 8 8 7 7 6 6 5 5 5 4 4 5 4 7 9 12 11 9 8 7 7
14 15 15 14 12 11 11 11 10 10 9 9 9 9 8 9 8 8 7 7 7 6 6 6 7 6 6 5 4 3 4 5 7 4 5 8 10 13 11 10 9 8 7
14 14 15 14 12 11 10 10 9 9 8 8 8 8 8 8 8 7 6 6 6 6 5 5 5 5 5 5 4 4 4 5 5 4 6 8 13 13 12 10 9 9 8
13 13 12 13 12 11 10 9 9 8 8 7 6 6 6 7 7 7 6 6 6 6 6 5 5 5 5 5 5 5 5 6 6 2 5 8 13 13 11 10 9 9 8
10 11 10 11 11 10 9 9 8 8 7 6 6 6 5 6 6 7 7 7 7 7 7 7 6 6 6 7 7 7 6 6 6 3 5 8 12 12 11 10 9 9 9
9 8 8 8 9 9 10 10 9 8 6 5 5 6 6 5 6 6 7 8 7 7 7 8 8 8 8 8 9 9 7 5 4 2 4 10 12 12 11 10 9 9 9
8 7 6 6 7 7 6 8 7 6 6 5 3 4 4 3 4 5 8 8 8 8 8 9 9 9 10 8 10 10 6 6 4 4 7 12 12 12 11 10 9 9 9
8 6 6 6 5 4 5 6 4 4 5 4 3 3 2 2 3 5 5 6 7 7 7 7 8 7 7 6 5 6 5 5 4 5 7 10 11 11 11 10 10 9 10
8 7 5 6 5 3 3 4 3 3 3 4 4 2 2 1 2 2 2 4 4 4 3 3 3 3 4 4 3 4 3 3 5 5 6 9 10 10 10 10 9 9 9
9 7 6 6 5 3 3 1 2 3 3 5 5 3 2 2 2 1 1 1 2 3 3 2 1 1 1 1 2 3 3 3 5 7 7 9 10 9 8 9 9 9 9
8 7 6 7 6 4 2 0 1 2 3 4 5 5 2 2 2 1 1 1 1 1 1 2 1 2 2 1 1 2 2 3 5 6 8 9 10 9 8 8 7 7 7
8 7 7 7 6 4 2 1 1 1 3 3 5 6 3 2 2 1 1 1 1 1 1 2 1 1 2 2 2 2 2 2 3 5 7 9 9 10 9 8 7 7 7
8 7 5 5 7 5 3 1 1 1 3 3 4 5 4 2 1 1 1 1 1 1 1 1 1 2 1 1 2 2 3 2 3 5 6 7 8 8 9 9 8 7 7
8 7 6 4 5 5 4 2 2 2 2 3 3 3 3 2 2 1 1 1 1 1 1 1 2 1 1 1 2 3 3 4 3 4 4 5 7 8 9 10 9 8 7
8 8 7 5 5 4 3 3 1 2 2 2 3 3 3 2 1 1 1 0 1 2 2 2 2 1 1 1 2 1 2 3 4 4 4 4 5 7 8 8 8 7 8
9 8 7 5 5 4 3 3 2 3 2 2 3 3 2 1 1 1 2 1 1 2 2 1 1 0 1 1 1 1 1 3 4 4 3 3 4 5 7 7 7 7 7
9 8 7 6 6 5 4 3 3 3 3 3 2 3 3 2 1 1 2 1 1 1 1 1 1 1 1 0 1 1 1 0 1 3 4 4 4 4 5 7 7 7 7
10 10 8 6 6 5 4 3 3 3 2 2 3 3 2 2 2 2 2 2 2 1 1 0 1 1 1 1 1 0 1 0 1 1 3 3 4 3 3 4 5 6 7
10 10 8 7 6 6 5 4 4 3 3 2 2 3 3 2 2 1 2 2 2 2 2 1 2 2 2 2 1 0 1 0 1 0 0 2 3 3 2 2 3 3 4
10 10 9 8 7 6 5 4 4 3 3 2 3 4 3 3 2 2 1 1 1 1 1 2 2 2 2 2 2 1 1 0 2 1 1 0 1 1 2 1 1 2 3
8 8 9 8 7 6 6 5 5 3 3 2 2 3 3 2 2 2 1 2 1 0 1 1 1 1 1 3 3 2 1 1 1 1 1 1 1 1 2 2 2 2 3
Wind_Direction
102 105 98 91 87 85 82 84 88 88 90 93 95 101 105 106 106 106 107 111 115 118 120 121 122 121 121 120 118 118 119 116 112 112 109 106 108 113 121 125 127 120 120
108 108 101 94 89 85 83 84 90 92 95 96 97 102 105 108 109 109 111 114 118 121 122 122 123 123 124 124 122 122 124 125 125 124 120 118 119 119 121 123 118 117 124
109 112 104 94 90 87 85 85 88 92 95 96 97 102 105 108 108 110 114 118 121 123 123 123 126 127 127 128 130 133 137 141 143 147 144 142 133 128 122 118 117 120 123
114 115 105 101 93 90 87 87 87 91 93 94 95 101 106 107 108 112 117 120 123 123 123 125 128 131 133 133 136 142 148 157 165 175 174 155 140 134 130 125 125 127 130
110 110 108 107 99 94 91 89 89 92 95 95 93 96 103 103 104 110 116 119 121 124 125 126 128 131 134 136 141 150 159 170 191 211 182 134 129 139 140 137 136 136 139
111 112 114 113 107 101 96 94 93 94 96 96 95 95 103 107 109 110 113 117 120 124 125 129 133 133 137 143 150 163 178 191 221 217 168 135 133 144 147 147 145 141 145
111 113 120 120 115 110 105 99 99 99 98 99 100 103 108 115 117 115 119 123 123 124 128 130 136 139 143 146 155 172 192 221 238 200 142 126 134 146 151 154 157 156 153
114 117 124 126 123 118 113 108 104 103 105 107 107 107 110 114 119 126 131 135 138 142 141 143 148 155 154 159 173 198 217 245 227 180 145 135 144 150 156 161 165 166 167
113 120 129 135 133 129 124 119 115 111 111 118 119 117 119 124 129 136 142 148 158 162 161 161 166 172 176 183 195 216 234 252 270 208 148 135 152 155 159 164 170 172 174
112 115 126 135 137 141 140 138 135 130 128 132 134 136 141 148 153 155 157 162 169 173 174 175 186 191 195 198 207 221 236 255 252 189 137 143 154 158 162 168 174 176 178
109 111 123 129 139 146 147 145 152 150 155 158 162 164 180 183 168 171 158 167 178 183 188 192 198 202 206 211 217 221 227 232 236 145 132 152 161 164 168 175 182 185 184
122 121 124 125 130 142 134 136 153 153 154 172 154 164 186 172 166 147 155 172 185 193 202 209 214 215 218 217 216 218 221 210 213 158 152 162 165 166 169 175 182 186 184
132 128 129 124 117 126 125 135 146 147 146 151 127 132 137 137 132 126 153 177 194 200 210 207 220 223 214 209 203 195 211 208 166 143 154 162 163 170 172 176 182 183 185
132 130 129 116 110 96 98 118 137 139 136 123 117 120 115 98 92 106 147 172 181 184 189 202 213 215 207 197 199 173 193 192 145 135 152 159 159 166 172 178 184 187 187
131 132 125 110 97 83 70 53 123 119 113 115 119 107 88 100 86 97 106 129 159 161 163 184 185 176 173 186 209 176 183 157 151 154 160 162 158 161 170 178 183 191 194
128 133 130 119 114 102 112 106 59 110 112 106 112 104 67 71 73 91 101 89 64 90 134 146 153 143 147 157 165 164 178 160 158 155 160 168 164 161 164 171 177 182 192
135 135 135 133 127 128 143 137 107 102 106 99 103 108 104 84 86 90 102 105 105 148 138 123 120 117 143 156 166 182 178 175 167 168 168 169 173 176 176 174 175 179 186
134 129 131 141 139 142 149 130 88 71 86 103 109 113 117 104 88 78 100 99 186 157 132 136 144 141 142 165 181 185 166 174 174 175 174 174 172 177 181 182 180 181 182
133 135 139 144 142 151 161 161 155 107 87 92 98 103 113 117 79 69 91 23 291 128 113 98 89 79 135 191 206 183 184 175 175 183 175 176 173 174 175 183 187 189 191
140 145 152 156 149 159 160 162 157 125 118 105 99 90 99 105 95 39 117 49 12 54 64 59 70 60 298 270 272 181 191 180 171 176 188 183 176 177 175 178 182 190 197
147 148 152 160 156 160 164 173 171 158 153 138 123 112 115 93 80 50 26 39 64 74 66 78 85 234 252 250 288 319 244 198 178 177 184 170 172 172 171 175 178 185 189
156 154 157 167 165 167 167 176 174 169 164 156 129 123 127 121 67 76 55 23 35 91 67 11 9 323 287 299 271 268 280 161 217 188 171 179 180 179 178 179 185 179 181
165 164 169 167 165 174 175 179 177 169 184 154 144 138 132 136 115 51 56 28 348 14 71 316 320 299 301 309 322 0 311 310 286 167 182 165 160 167 188 179 179 183 184
171 169 164 162 165 170 176 185 186 176 178 172 157 142 141 126 121 108 78 50 10 11 27 343 33 314 307 309 328 6 194 114 243 285 278 147 155 168 180 191 164 158 169
171 167 165 161 166 165 173 174 186 192 188 174 155 147 150 153 148 127 107 85 48 22 16 9 11 354 353 338 325 313 292 228 238 222 237 167 152 163 159 150 121 135 153
165 163 159 158 162 167 180 180 183 190 188 174 165 160 165 149 140 121 102 81 69 39 347 341 348 11 351 334 333 342 344 345 307 252 220 217 188 156 128 139 135 129 135
Height
1504 1504 1504 1504 1504 1504 1503 1503 1504 1504 1505 1505 1506 1507 1508 1510 1511 1513 1515 1516 1518 1520 1522 1524 1526 1528 1530 1532 1534 1535 1537 1539 1541 1542 1544 1545 1546 1548 1549 1550 1551 1552 1553
1504 1505 1505 1505 1505 1505 1505 1505 1506 1506 1507 1507 1508 1509 1510 1512 1513 1515 1516 1518 1520 1522 1524 1526 1528 1530 1531 1533 1535 1537 1538 1540 1542 1543 1545 1546 1547 1549 1550 1551 1552 1553 1554
1505 1506 1506 1507 1507 1507 1507 1507 1507 1508 1508 1509 1510 1511 1513 1514 1515 1517 1518 1520 1522 1523 1525 1527 1529 1531 1533 1534 1536 1538 1539 1541 1543 1544 1546 1547 1548 1550 1551 1552 1553 1554 1555
1507 1507 1508 1508 1508 1508 1509 1509 1509 1510 1510 1511 1512 1513 1514 1516 1517 1518 1520 1522 1523 1525 1527 1529 1530 1532 1534 1535 1537 1539 1540 1542 1544 1545 1547 1548 1549 1551 1552 1553 1554 1555 1556
1508 1509 1509 1510 1510 1510 1510 1511 1511 1512 1512 1513 1514 1515 1516 1517 1519 1520 1522 1523 1525 1526 1528 1530 1532 1533 1535 1536 1538 1540 1541 1543 1545 1546 1548 1549 1550 1551 1552 1553 1554 1555 1556
1510 1510 1511 1511 1512 1512 1512 1513 1513 1514 1514 1515 1516 1517 1518 1519 1520 1522 1523 1524 1526 1527 1529 1530 1532 1534 1535 1537 1539 1541 1542 1544 1545 1547 1548 1549 1550 1551 1552 1553 1554 1555 1557
1512 1512 1512 1513 1514 1514 1515 1515 1515 1516 1516 1517 1518 1518 1520 1520 1522 1523 1524 1525 1527 1528 1530 1531 1533 1534 1536 1538 1539 1541 1542 1544 1546 1548 1549 1550 1551 1552 1552 1553 1554 1555 1557
1513 1513 1514 1515 1516 1516 1517 1517 1517 1518 1518 1519 1519 1520 1521 1522 1523 1524 1525 1526 1527 1529 1530 1532 1533 1535 1536 1538 1539 1541 1542 1544 1546 1548 1549 1550 1550 1551 1552 1553 1554 1555 1556
1515 1515 1516 1517 1517 1518 1519 1519 1519 1519 1520 1520 1521 1522 1523 1523 1524 1525 1526 1527 1528 1529 1530 1532 1533 1535 1536 1538 1539 1540 1542 1544 1545 1547 1548 1549 1550 1551 1552 1553 1554 1555 1556
1517 1517 1517 1518 1519 1520 1520 1521 1521 1521 1522 1522 1523 1523 1524 1525 1525 1526 1527 1528 1528 1529 1530 1532 1533 1535 1536 1538 1539 1540 1541 1543 1544 1546 1547 1548 1549 1550 1551 1553 1554 1555 1556
1518 1519 1519 1520 1520 1521 1522 1523 1523 1523 1523 1523 1524 1525 1525 1526 1526 1527 1528 1528 1529 1529 1530 1531 1533 1534 1536 1537 1539 1540 1541 1542 1544 1545 1546 1547 1548 1549 1551 1552 1553 1554 1555
1518 1520 1521 1521 1522 1523 1524 1524 1524 1525 1525 1525 1525 1526 1526 1527 1528 1528 1529 1529 1530 1530 1531 1532 1533 1534 1535 1536 1538 1539 1540 1541 1542 1543 1545 1546 1547 1548 1550 1551 1552 1553 1554
1519 1520 1521 1522 1523 1524 1525 1526 1526 1526 1526 1526 1527 1527 1528 1528 1529 1529 1529 1530 1530 1531 1531 1532 1532 1533 1534 1535 1537 1538 1539 1540 1541 1542 1544 1545 1546 1547 1548 1550 1551 1552 1553
1518 1520 1522 1523 1524 1525 1526 1527 1527 1528 1528 1528 1528 1528 1529 1529 1529 1530 1530 1531 1531 1531 1532 1532 1532 1532 1532 1534 1535 1537 1538 1539 1540 1541 1542 1544 1544 1546 1547 1548 1550 1551 1552
1518 1520 1522 1523 1523 1525 1526 1527 1528 1529 1529 1529 1529 1529 1529 1530 1530 1530 1531 1531 1532 1532 1532 1532 1532 1532 1532 1533 1534 1535 1537 1538 1539 1539 1541 1542 1543 1544 1546 1547 1548 1550 1551
1518 1520 1522 1523 1524 1525 1526 1527 1529 1529 1529 1530 1529 1529 1530 1530 1530 1531 1531 1532 1532 1532 1532 1532 1532 1532 1532 1533 1533 1534 1536 1537 1538 1538 1539 1541 1542 1543 1544 1545 1547 1548 1549
1518 1520 1522 1523 1524 1525 1526 1528 1529 1529 1530 1530 1530 1530 1530 1530 1531 1531 1531 1532 1532 1532 1532 1532 1532 1532 1533 1533 1533 1534 1535 1536 1537 1537 1538 1539 1540 1542 1543 1544 1545 1546 1547
1518 1520 1522 1524 1524 1525 1526 1528 1528 1529 1530 1530 1530 1530 1531 1531 1531 1532 1532 1532 1532 1532 1533 1533 1532 1532 1533 1533 1533 1534 1534 1535 1535 1536 1537 1538 1539 1540 1542 1542 1544 1545 1545
1518 1519 1521 1523 1524 1525 1526 1528 1529 1529 1530 1530 1530 1531 1531 1531 1532 1532 1532 1532 1533 1533 1533 1533 1533 1533 1532 1533 1533 1533 1534 1534 1534 1535 1536 1537 1538 1539 1540 1541 1542 1543 1543
1518 1519 1520 1522 1524 1525 1526 1527 1529 1529 1530 1530 1530 1531 1531 1531 1532 1532 1532 1532 1533 1533 1533 1533 1532 1533 1533 1533 1533 1533 1533 1533 1533 1534 1535 1536 1537 1538 1538 1539 1540 1541 1541
1516 1518 1519 1521 1522 1524 1525 1526 1527 1528 1529 1530 1530 1530 1531 1531 1531 1532 1532 1532 1532 1532 1532 1532 1532 1532 1533 1532 1532 1532 1532 1532 1532 1533 1534 1535 1535 1536 1537 1537 1538 1539 1539
1515 1516 1518 1519 1521 1522 1523 1525 1526 1528 1529 1529 1530 1530 1530 1530 1531 1532 1531 1532 1532 1532 1532 1532 1532 1532 1532 1532 1532 1531 1531 1532 1531 1532 1532 1533 1534 1535 1536 1536 1536 1537 1538
1513 1514 1516 1518 1519 1521 1522 1524 1526 1527 1528 1529 1530 1530 1530 1530 1530 1530 1530 1531 1531 1531 1531 1531 1531 1531 1531 1531 1531 1531 1531 1531 1531 1531 1532 1532 1533 1534 1535 1535 1535 1535 1536
1511 1513 1514 1516 1518 1519 1521 1523 1524 1525 1526 1528 1528 1529 1529 1529 1529 1529 1529 1530 1530 1530 1530 1530 1531 1531 1531 1531 1531 1531 1531 1531 1530 1530 1531 1531 1532 1532 1533 1534 1534 1533 1534
1509 1511 1513 1514 1516 1518 1519 1521 1522 1524 1525 1526 1527 1528 1528 1528 1528 1528 1528 1529 1529 1529 1529 1529 1529 1530 1530 1530 1530 1530 1530 1530 1530 1530 1530 1530 1531 1531 1531 1532 1532 1532 1532
1508 1510 1512 1513 1514 1516 1518 1519 1520 1522 1523 1524 1525 1526 1526 1526 1527 1527 1527 1527 1527 1528 1528 1528 1528 1528 1529 1529 1529 1529 1529 1529 1528 1529 1529 1529 1529 1530 1530 1530 1530 1531 1531